This is the latest recevied weather packets stored in our database for station/object DB0RV-13. If no packets are shown the sender has not sent any weather packets the latest 10 day(s).
| Time | Temp. | Humidity | Pressure | Rain* | Wind** | Luminosity | Snow |
|---|---|---|---|---|---|---|---|
| 1777978802 | 13.33° C | 80% | 1008.1 hPa | - | - | - | - |
| 1777978502 | 13.33° C | 81% | 1008.2 hPa | - | - | - | - |
| 1777978202 | 12.78° C | 80% | 1008.1 hPa | - | - | - | - |
| 1777977902 | 13.33° C | 79% | 1008.2 hPa | - | - | - | - |
| 1777977601 | 13.33° C | 78% | 1008 hPa | - | - | - | - |
| 1777977302 | 12.78° C | 78% | 1008.1 hPa | - | - | - | - |
| 1777977001 | 13.33° C | 78% | 1008 hPa | - | - | - | - |
| 1777976702 | 13.33° C | 77% | 1008.2 hPa | - | - | - | - |
| 1777976401 | 13.33° C | 77% | 1008.2 hPa | - | - | - | - |
| 1777976102 | 12.78° C | 76% | 1008.1 hPa | - | - | - | - |
| 1777975802 | 13.33° C | 76% | 1008 hPa | - | - | - | - |
| 1777975502 | 13.89° C | 77% | 1008.1 hPa | - | - | - | - |
| 1777975202 | 13.33° C | 76% | 1008.1 hPa | - | - | - | - |
| 1777974901 | 12.78° C | 76% | 1008 hPa | - | - | - | - |
| 1777974602 | 12.78° C | 76% | 1008.2 hPa | - | - | - | - |
| 1777974301 | 12.78° C | 78% | 1008.1 hPa | - | - | - | - |
| 1777974002 | 12.78° C | 78% | 1008.2 hPa | - | - | - | - |
| 1777973702 | 12.78° C | 79% | 1008.3 hPa | - | - | - | - |
| 1777973402 | 12.22° C | 77% | 1008.3 hPa | - | - | - | - |
| 1777973102 | 12.78° C | 78% | 1008.4 hPa | - | - | - | - |
| 1777972802 | 12.78° C | 78% | 1008.4 hPa | - | - | - | - |
| 1777972502 | 12.78° C | 79% | 1008.3 hPa | - | - | - | - |
| 1777972201 | 12.78° C | 79% | 1008.3 hPa | - | - | - | - |
| 1777971902 | 12.78° C | 78% | 1008.3 hPa | - | - | - | - |
| 1777971601 | 12.78° C | 79% | 1008.4 hPa | - | - | - | - |
* Rain since midnight (hover to see other rain measurements)
** Current wind speed in m/s (hover to see current wind gust speed)